Погода в Демидовке

Украина / Полтавская область     49°15′01″N   33°31′44″E
темп.,
°C
ветер,
м/с
пор.,
м/с
влажн.,
%
обл.,
%
осадки,
мм/ч
давл.,
гПа
погр.,
м
17 мая, пн
пн1700:00+15св31091100 2.2 1006190
03:00+16всв3896100 5.1 1003189
06:00+16всв2297100 0.1 100254
09:00+19вюв3682100 0.2 1002481
12:00+23вюв346696 0.3 10011214
15:00+20зюз338199 0.6 1002325
18:00+21ююз467535 0.1 1002784
21:00+17ю35881 0.6 100389
18 мая, вт
вт1800:00+15ююз4793100 0.1 1004131
03:00+14ююз3694100 0.1 1004123
06:00+14ю3693100 0.1 1004184
09:00+17ю4681100 1.4 1005539
12:00+21ююв57615 0.0 10031194
15:00+20ю696896 1.9 10021118
18:00+18ю597390 1.1 10021203
21:00+14ююв4990100 1.7 1003241
19 мая, ср
ср1900:00+12ююв369326 0.0 1002114
03:00+12ююв389399 0.0 1003228
06:00+11юв3593100 0.0 1003141
09:00+16ю35725 0.0 1003716
12:00+19ю565646 0.5 10031785
15:00+17ююз566686 0.9 1004577
18:00+18юз336429 0.9 1004878
21:00+13зсз338514 1.3 100538
20 мая, чт
чт2000:00+12зюз489610 0.3 1006205
03:00+13з5990100 0.4 1007575
06:00+12з599299 0.1 1008638
09:00+13зюз578697 0.3 1009657
12:00+18з695999 0.1 10101296
15:00+20з6852100 0.1 10101954
18:00+15зюз3787100 0.5 1012296
21:00+13юз1293100 1.7 101280
21 мая, пт
пт2100:00+13ююв3395100 0.8 101296
03:00+13всв2596100 3.3 1013193
06:00+13всв4993100 0.1 1012336
09:00+15в5983100 0.1 1013452
12:00+18в5770100 0.0 1012765
15:00+22вюв5660100 0.1 10111575
18:00+21вюв3568100 0.1 1011451
21:00+18св3582100 0.1 101168